This demonstration page uses our WeatherBlox Daily Observations layout. Learn more.

Left ArrowRight Arrow

Hourly Observations for October 6, 2021

Temp ( °F °C ) Dew Point ( °F °C ) Humidity (%) Winds ( mph kmh ) Pressure ( in mb ) Visibility ( mi km ) Precip ( " mm )
12:53 am 00:53 Cloudy 71 21.7 68 20 90 90 ESE 7 11 30.08 1019 10 16 0.00 0.00
1:11 am 01:11 Cloudy 70 21.1 68 20 93 93 VRB 7 11 30.07 1018 10 16 0.00 0.00
1:53 am 01:53 Cloudy with Light Rain 71 21.7 68 20 90 90 SE 5 7 30.08 1019 7 11 0.02 0.51
2:08 am 02:08 Cloudy with Light Rain 70 21.1 68 20 93 93 E 3 6 30.07 1018 10 16 0.01 0.25
2:22 am 02:22 Cloudy 70 21.1 68 20 93 93 Calm 30.07 1018 10 16 0.01 0.25
2:31 am 02:31 Cloudy with Rain 70 21.1 68 20 93 93 S 5 7 30.07 1018 4 6 0.08 2.03
2:33 am 02:33 Cloudy with Heavy Rain 70 21.1 68 20 93 93 Calm 30.07 1018 3 4 0.10 2.54
2:42 am 02:42 Cloudy with Light Rain 70 21.1 69 20.6 97 97 VRB 3 6 30.07 1018 4 6 0.12 3.05
2:51 am 02:51 Cloudy with Light Rain 70 21 68 20 94 94 E 5 7 30.08 1018 10 16 0.12 3.05
2:53 am 02:53 Cloudy with Light Rain 70 21.1 68 20 93 93 E 7 11 30.08 1019 10 16 0.12 3.05
3:31 am 03:31 Cloudy 70 21.1 68 20 93 93 Calm 30.07 1018 10 16 0.00 0.00
3:53 am 03:53 Mostly Cloudy 70 21.1 68 20 93 93 ESE 5 7 30.07 1018 10 16 0.00 0.00
4:01 am 04:01 Partly Cloudy 70 21.1 68 20 93 93 E 6 9 30.06 1018 10 16 0.00 0.00
4:53 am 04:53 Mostly Cloudy 69 20.6 67 19.4 93 93 SE 3 6 30.07 1018 10 16 0.00 0.00
5:53 am 05:53 Cloudy 69 20.6 67 19.4 93 93 E 5 7 30.08 1019 10 16 0.00 0.00
6:49 am 06:49 Mostly Cloudy 70 21 66 19 88 88 E 7 11 30.10 1019 10 16 0.00 0.00
6:53 am 06:53 Mostly Cloudy 70 21.1 67 19.4 90 90 E 7 11 30.10 1019 10 16 0.00 0.00
7:53 am 07:53 Cloudy 70 21.1 67 19.4 90 90 E 6 9 30.10 1019 10 16 0.00 0.00
8:53 am 08:53 Cloudy 71 21.7 68 20 90 90 VRB 5 7 30.11 1020 10 16 0.00 0.00
9:19 am 09:19 Cloudy 71 21.7 68 20 90 90 ESE 3 6 30.12 1020 7 11 0.00 0.00
9:53 am 09:53 Cloudy 71 21.7 68 20 90 90 VRB 5 7 30.14 1021 7 11 0.00 0.00
10:53 am 10:53 Cloudy 73 22.8 69 20.6 87 87 SSE 5 7 30.14 1021 10 16 0.00 0.00
11:53 am 11:53 Cloudy 74 23.3 69 20.6 85 85 ESE 8 13 30.13 1020 10 16 0.00 0.00
12:00 pm 12:00 Cloudy 75 23.9 68 20 79 79 ESE 9 15 30.12 1020 10 16 0.00 0.00
12:53 pm 12:53 Cloudy 76 24.4 68 20 77 77 ESE 8 13 30.11 1020 10 16 0.00 0.00
1:00 pm 13:00 Partly Cloudy 76 24.4 68 20 77 77 E 9 15 30.10 1019 10 16 0.00 0.00
1:12 pm 13:12 Mostly Cloudy 76 24.4 68 20 77 77 E 9 15 30.10 1019 10 16 0.00 0.00
1:53 pm 13:53 Mostly Cloudy 76 24.4 69 20.6 79 79 SE 9 15 30.11 1020 10 16 0.00 0.00
2:00 pm 14:00 Mostly Cloudy 76 24.4 69 20.6 79 79 SE 9 15 30.10 1019 10 16 0.00 0.00
2:53 pm 14:53 Cloudy 75 23.9 67 19.4 76 76 ESE 7 11 30.09 1019 10 16 0.01 0.25
3:53 pm 15:53 Mostly Cloudy 73 22.8 66 18.9 79 79 ESE 5 7 30.08 1019 10 16 0.00 0.00
4:53 pm 16:53 Sunny 76 24.4 67 19.4 74 74 VRB 6 9 30.06 1018 10 16 0.00 0.00
5:53 pm 17:53 Mostly Cloudy 75 23.9 67 19.4 76 76 SE 9 15 30.07 1018 10 16 0.00 0.00
6:53 pm 18:53 Cloudy 73 22.8 67 19.4 81 81 ESE 8 13 30.08 1019 10 16 0.00 0.00
7:22 pm 19:22 Cloudy 73 22.8 67 19.4 81 81 ESE 9 15 30.08 1019 10 16 0.00 0.00
7:53 pm 19:53 Partly Cloudy 72 22.2 67 19.4 84 84 E 8 13 30.08 1019 10 16 0.00 0.00
8:14 pm 20:14 Mostly Cloudy 72 22.2 67 19.4 84 84 VRB 6 9 30.07 1018 10 16 0.00 0.00
8:53 pm 20:53 Cloudy 72 22.2 67 19.4 84 84 E 7 11 30.09 1019 10 16 0.00 0.00
9:04 pm 21:04 Cloudy 72 22.2 67 19.4 84 84 E 8 13 30.08 1019 10 16 0.00 0.00
9:23 pm 21:23 Cloudy 71 21.7 67 19.4 87 87 ESE 7 11 30.09 1019 10 16 0.00 0.00
9:53 pm 21:53 Cloudy 71 21.7 67 19.4 87 87 ESE 7 11 30.10 1019 10 16 0.00 0.00
10:07 pm 22:07 Cloudy 72 22.2 67 19.4 84 84 ESE 5 7 30.10 1019 10 16 0.00 0.00
10:34 pm 22:34 Cloudy 71 21.7 67 19.4 87 87 ESE 7 11 30.10 1019 10 16 0.00 0.00
10:45 pm 22:45 Cloudy 71 21.7 67 19.4 87 87 ESE 6 9 30.10 1019 10 16 0.00 0.00
10:53 pm 22:53 Cloudy with Light Rain 71 21.7 67 19.4 87 87 SE 7 11 30.11 1020 8 13 0.01 0.25
11:20 pm 23:20 Cloudy 71 21.7 68 20 90 90 E 7 11 30.10 1019 10 16 0.01 0.25
11:40 pm 23:40 Cloudy 71 21.7 68 20 90 90 ESE 6 9 30.11 1020 10 16 0.01 0.25
11:53 pm 23:53 Cloudy 71 21.7 68 20 90 90 ESE 5 7 30.11 1020 10 16 0.01 0.25

Powered by AerisWeather